Weather in Alice

United States     27°44′58″N   98°04′10″W
temp.,
°C
wind,
m/s
gust,
m/s
humid.,
%
clouds,
%
prec.,
mm/h
press.,
hPa
HPBL,
m
16 may, sun
sun1601:00+22se41195100 0.4 1015547
04:00+22ese4119795 0.1 1013437
07:00+22ese4119648 0.4 1014421
10:00+27sse7976100 0.2 10141060
13:00+28se7969100 0.8 10131159
16:00+30sse796179 0.4 10111511
19:00+26se8107853 0.8 1010692
22:00+24se8139185 0.2 1012526
17 may, mon
mon1701:00+24sse7139334 0.2 1011589
04:00+23se6139661 0.0 1010669
07:00+23se3119749 0.1 1010556
10:00+27sse797497 0.1 10111115
13:00+29se786492 0.3 10101043
16:00+32se995913 0.0 10081156
19:00+28se912710 0.0 1007708
22:00+24se7149436 0.0 1009605
18 may, tue
tue1801:00+24ese5129565 0.0 1010598
04:00+24ese489344 0.3 1009379
07:00+24se8159752 0.4 1007622
10:00+28sse8117398 0.1 10091236
13:00+29se8117163 0.3 1008883
16:00+31se10116067 0.1 10051171
19:00+28se913775 0.1 1005724
22:00+25se916880 0.0 1006662
19 may, wed
wed1901:00+25se51292100 0.0 1007586
04:00+25sse7149049 0.3 1007779
07:00+24se6119393 11.3 1008318
10:00+28se9117596 0.4 10101052
13:00+32se9105692 0.5 10081663
16:00+27ese81178100 11.5 1005478
19:00+25sse5985100 37.1 1007263
22:00+20ne7995100 21.1 1009164
20 may, thu
thu2001:00+19nnw3791100 84.3 1010159
04:00+19se4996100 3.2 1010412
07:00+19se3896100 3.3 1011530
10:00+22se4583100 0.2 1013759
13:00+24se557999 0.9 1013811
16:00+26sse557253 1.6 1011964
19:00+24ese6882100 3.9 1012462
22:00+21se3692100 0.3 1013192